Reflectivity
13 -15 -8 -18 -6 18 -5 -8 6 1 13 -20 3 -18 -20 -10 -19 18 -8 14 2 8 -1 -1 16 -20 6 -20 -7 7 31 31 25 12 -1 3 13 7 8 9 -20 -20 -16 -16 -20 -20 -20 -20 -20 -20 -20 -20 -20 -20
-9 13 11 16 13 -17 10 -18 5 10 -17 1 -12 9 24 8 -4 23 13 -6 28 -7 8 3 21 -20 -7 -20 10 -20 -17 -20 27 13 -8 -20 2 13 8 -7 -2 -8 -20 -20 -20 -20 -20 -20 -20 -20 -20 -20 -20 -20
-20 10 -15 -16 -20 -20 -18 -20 -17 15 -20 -20 -1 14 24 19 -9 20 16 -20 24 11 0 -6 17 23 7 -17 3 -20 8 12 12 8 -4 12 8 2 -15 -19 -20 -20 -20 -20 -20 -20 -20 -20 -20 -20 -20 -20 -6 -19
-20 19 18 21 3 -4 -5 11 10 -20 -20 -20 -11 -7 -2 -9 14 16 12 -20 13 21 12 -18 42 35 2 -20 -20 -20 -20 -3 8 -12 -20 -20 -20 -20 -20 -20 -20 -20 -20 -20 -20 -20 -20 -20 -20 -9 -20 -5 -20 -20
13 14 -2 9 -16 13 -9 -20 -20 -20 -20 -19 -17 -3 5 20 3 7 21 15 12 34 26 23 42 8 -19 -20 -20 -20 -20 -20 -20 -20 -20 -20 -20 -20 -20 -20 -20 -20 -20 -20 -20 -20 -20 9 -20 -9 15 -6 -13 -20
25 11 -17 -20 0 -6 -19 15 -19 9 -19 -18 -5 9 9 3 13 20 23 5 5 39 39 21 26 23 1 -20 -20 -20 -20 -20 -20 -20 -20 -20 -20 -20 -20 -20 -20 -20 -20 -20 -20 -3 -4 -20 -20 -20 -20 -20 -20 -20
-20 -14 8 13 11 10 4 0 -20 -20 -20 -12 0 8 3 -3 0 13 18 -17 -13 35 39 24 16 -8 -20 -20 -20 -20 -20 -20 -20 -20 -20 -20 -20 -20 -20 -20 -20 -20 -20 -20 -20 -20 -20 -20 -20 -20 -20 -20 -20 -20
7 -6 -9 -20 -18 -14 -2 2 -1 -13 -13 4 14 -3 -9 9 18 16 1 11 19 38 33 23 11 -17 -20 -20 -20 -20 -20 -20 -20 -20 -20 -20 -20 -20 -20 -20 -20 -20 -20 -20 -20 -20 -20 -20 -20 -20 -20 -20 -20 -20
-17 -20 -2 7 15 30 32 27 13 -1 5 -2 -8 -13 21 23 27 27 29 32 33 23 4 -15 -20 -20 -20 -20 -20 -20 -20 -20 -20 -20 -20 -20 -20 -20 -20 -20 -20 -20 -20 -20 -20 -20 -20 -20 -20 -20 -20 -20 -20 -20
35 41 34 21 21 13 3 5 16 10 -0 1 32 38 29 35 36 27 26 37 37 16 -20 -20 -20 -20 -20 -20 -20 -20 -20 -20 -20 -20 -20 -20 -20 -20 -20 -20 -20 -20 -20 -20 -20 -20 -20 -20 -20 -20 -20 -20 -20 -20
39 37 36 33 26 19 19 25 33 34 33 35 28 27 36 37 30 34 24 10 0 -10 -20 -20 -20 -20 -20 -20 -20 -20 -20 -20 -20 -20 -20 -20 -20 -20 -20 -20 -20 -20 -20 -20 -20 -20 -20 -20 -20 -20 -20 -20 -20 -20
35 16 31 34 26 27 28 29 27 21 17 14 15 11 22 28 19 14 5 -6 -20 -20 -20 -20 -20 -20 -20 -20 -20 -20 -20 -20 -20 -20 -20 -20 -20 -20 -20 -20 -20 -20 -20 -20 -20 -20 -20 -20 -20 -20 -20 -20 -20 -20
28 24 27 27 -6 13 18 19 21 18 16 17 11 15 18 12 11 3 -10 -20 -20 -20 -20 -20 -20 -20 -20 -20 -20 -20 -20 -20 -20 -20 -20 -20 -20 -20 -20 -20 -20 8 3 -20 -20 -20 -20 -20 -20 -20 -20 -20 -20 -20
15 9 14 1 -20 -20 -20 -20 -20 -20 -20 -20 -20 -20 -20 -20 -20 -20 -20 -19 -7 -4 -17 -20 -20 -20 -20 -20 -20 -20 -20 -20 -20 -20 -20 -20 -20 -20 -20 -20 -17 -20 -19 -17 -20 -20 -20 -20 -20 -20 -20 -20 -19 13
-20 -20 -20 -20 -20 -20 -20 -20 -20 -20 -20 -20 -20 -20 -20 -20 -20 -20 -20 -20 -20 -20 -20 -20 -20 -20 -20 -20 -20 -20 5 -20 -20 -20 -20 -20 -20 -20 5 -1 -20 -20 9 8 14 -9 -20 -20 -20 -20 -20 -8 -12 -20
-20 -20 -20 -20 -20 -20 -20 -20 -20 -20 -20 -20 -20 -20 -20 -20 -20 -20 -20 -20 -20 -20 -20 -20 -20 -20 -20 -20 -19 -20 -20 -20 -20 -20 -20 -1 -20 -20 -20 -20 -20 -20 1 11 13 -20 -20 -20 -20 -20 -0 -2 -20 -12
-20 -20 -20 -20 -20 -20 -20 -20 -20 -20 -20 -20 -20 -20 -20 -20 -20 -20 -20 -20 -20 -20 -20 -20 -20 6 4 -13 13 -6 -20 -20 -20 19 -20 -20 -20 -20 -20 -20 -20 -20 -6 2 -18 -20 -20 -20 -20 -20 -20 -20 -20 -20
-20 -20 -20 -20 -20 -20 -20 -20 -20 -20 -20 -20 -20 -20 -20 -20 -20 -20 -20 -20 -20 -20 -20 0 5 -20 -20 -20 -20 -20 3 6 -15 7 15 -19 -20 -20 -20 -20 -20 -15 7 3 -20 -20 -20 -20 -20 -20 -20 -20 -20 -20
-20 -20 -20 -20 -20 -20 -20 -20 -20 -20 -20 -20 -20 -20 -20 -20 -20 -20 -20 -20 -20 -20 -8 9 2 -20 -20 -20 -20 -20 -20 -20 -9 -15 -20 -20 -20 -20 -20 -20 -20 2 -2 -19 -20 -20 -20 -20 -20 -20 -20 -20 -20 -20
-20 -20 -20 -20 -20 -20 -20 -20 -20 -20 -20 -20 -20 -20 -20 -20 -20 -20 -20 -20 -20 -20 -17 -3 -20 -20 -20 -20 -20 -20 -20 -20 -20 -20 -20 -20 -20 -20 -20 -20 -20 -18 -19 -20 -20 3 -20 -20 -20 -20 -20 -20 -20 -20
-20 -20 -20 -20 -20 -20 -20 -20 -20 -20 -20 -7 -20 -20 -20 8 14 2 -17 -20 -4 -1 -20 -20 -20 -20 -20 -20 -20 -20 -20 -20 -20 -20 -20 -20 -20 -20 -20 -20 -17 -17 -20 -20 -20 -20 -20 -20 -20 -20 -20 -20 -20 -20
-20 -20 -20 -20 -20 -20 -20 -20 -20 -10 -20 -20 -20 -20 -20 -20 -20 -13 -11 -20 -20 -20 -20 -20 -20 -20 -20 -20 -20 -20 -20 -20 -20 -20 -20 -20 -20 -20 -20 -19 -20 -20 -20 -20 -20 -20 -20 -20 -20 -20 -20 -20 -20 -20
-20 -20 -20 -20 -20 -20 -20 -20 -3 -20 -20 -20 -20 -15 -20 -20 -9 13 -10 -20 -20 -20 -20 -20 -20 -20 -20 -20 -20 -20 -20 -20 -20 -20 -20 -20 -15 -20 -20 -20 -20 -20 -20 -20 -20 -20 -20 -20 -20 -20 -20 -20 -20 -20
-20 -20 -20 -20 -20 -20 -20 -20 -20 -20 -20 -20 -20 -20 -20 -20 -19 -12 -20 -20 -20 -20 -20 -20 -20 -20 -20 -20 -20 -20 -20 -20 -20 -20 -20 -20 -12 -20 0 -11 -19 -20 -20 -19 -20 -20 -20 -20 -20 -20 -20 -20 -20 -20
-19 -20 -20 -20 -20 -9 -18 -20 -20 -20 -20 -20 -20 -20 -20 -20 -20 -20 -20 -20 -20 -20 -20 -20 -20 -20 0 -5 -7 -20 -20 -19 -20 -20 -20 -20 -19 -17 -16 -20 -19 -20 -13 -15 -16 -19 -20 -8 -10 -20 -20 -12 -15 -13
-20 -20 -17 -20 -20 -20 -20 -20 -20 -16 -20 -16 -20 -20 -20 -20 -20 -20 -20 -20 -20 -20 -20 -20 -19 -20 -20 -11 1 6 8 -9 -20 -20 -20 -20 -20 -20 -20 -20 -20 -20 -18 -19 3 4 -4 -1 1 -2 4 8 7 -5
-20 -20 -20 -20 -20 -20 -20 -20 -20 -20 -20 -20 -20 -20 -20 -20 -20 -20 5 3 -20 -20 -20 -20 -10 -7 -19 -18 -7 5 -2 -20 -20 -20 -20 -20 -20 -20 -20 -20 -20 -20 -20 -20 -20 -20 -20 -20 -20 -20 -20 -11 -20 -1
-20 -20 -17 -20 -20 -20 -20 -20 -20 -20 -20 -20 -20 -20 -20 -20 -20 -20 -18 -20 -20 -20 -20 -20 -20 -17 -19 -20 -20 -20 -20 -20 -20 -20 -20 -20 -20 -20 -20 -20 -20 -20 -20 -20 -20 -20 -20 -20 -20 -20 -13 -8 -20 -19
-20 -20 -20 -20 -20 -20 -20 -20 -20 -20 -20 -20 -20 -20 -20 -20 -20 -20 -20 -20 -20 -20 -20 -20 -20 -20 -16 -15 -17 -20 -20 -20 -20 -20 -20 -20 -20 -20 -20 -20 -20 -20 -20 -20 -20 -20 -20 -20 -20 -20 -20 -20 -20 -20
-20 -20 -20 -20 -20 -20 -20 -20 -20 -20 -20 -20 -20 -20 -20 -20 -20 -20 -20 -20 -20 -20 -20 -20 -20 -20 -20 -18 -18 -20 -20 -20 -20 -20 -20 -20 -20 -20 -20 -20 -20 -20 -20 -20 -20 -20 -20 -20 -20 -20 -20 -20 -20 -20
-20 -20 -20 -20 -20 -20 -20 -20 -20 -20 -20 -20 -20 -20 -20 -20 -20 -20 -20 -20 -20 -20 -20 -20 -19 -20 -20 -17 -18 -20 -20 -20 -20 -20 -20 -20 -20 -20 -20 -20 -20 -20 -20 -20 -20 -20 -20 -20 -20 -20 -20 -20 -20 -20
-20 -20 -20 -20 -20 -20 -20 -20 -20 -20 -20 -20 -20 -20 -20 -20 -20 -20 -20 -20 -20 -20 -20 -20 -20 -20 -20 -20 -19 -20 -13 -20 -20 -20 -20 -20 -20 -20 -20 -20 -20 -20 -20 -20 -19 -18 -18 -19 -20 -20 -20 -20 -20 -20
-20 -20 -20 -20 -20 -20 -20 -20 -20 -20 -20 -20 -20 -20 -20 -20 -20 -20 -20 -20 -20 -20 -20 -20 -20 -15 -20 -20 -20 -19 -18 -20 -20 -20 -9 -7 -20 -20 -20 -20 -20 -20 -20 -20 -20 -20 -18 -20 -20 -20 -20 -20 -20 -20
Wind_Speed
27 26 25 25 24 23 21 20 20 21 20 18 18 18 19 17 17 11 3 6 5 3 5 6 14 5 2 4 6 5 2 2 2 4 4 4 4 4 2 4 7 8 9 5 3 4 10 5 4 9 6 3 7 6
27 25 24 24 24 23 21 20 20 20 20 19 18 19 18 16 17 13 4 4 6 5 4 4 9 8 14 12 7 3 2 5 6 4 3 3 3 2 3 5 1 3 7 6 8 7 6 5 5 3 3 4 5 7
25 24 24 23 23 22 20 20 20 19 20 20 19 18 17 17 17 13 3 4 6 7 6 6 6 16 11 7 7 8 2 4 4 4 4 3 1 2 3 4 3 3 2 5 3 5 6 9 6 8 6 5 6 7
24 23 23 23 22 20 21 20 19 18 19 20 19 19 19 19 17 15 6 6 4 3 5 3 4 18 5 7 8 5 7 4 4 2 2 3 1 2 1 3 1 4 2 5 2 4 3 1 3 6 4 5 4 6
20 19 20 19 19 21 20 19 19 19 19 20 21 20 19 17 15 9 6 8 9 3 2 3 6 4 5 8 9 8 7 5 2 3 2 2 1 1 2 1 3 3 5 4 5 5 4 5 4 3 6 8 9 10
22 19 18 20 21 20 20 20 20 20 19 21 22 20 17 16 15 2 4 7 11 7 3 4 4 2 4 8 8 7 5 4 3 4 2 2 3 4 2 3 5 7 6 7 6 4 6 6 6 8 9 9 9 10
16 15 16 18 18 20 21 21 21 22 22 21 21 21 17 19 10 8 5 4 21 11 3 2 2 1 4 3 3 3 4 3 4 2 2 3 2 4 2 5 6 5 6 4 3 1 4 5 6 7 6 7 9 6
7 8 9 11 13 18 21 24 24 25 24 23 20 19 20 21 14 11 7 17 17 5 3 4 2 3 2 2 2 2 3 3 2 3 1 2 2 2 5 5 12 14 15 12 13 10 10 8 6 8 7 5 8 9
9 8 13 17 22 26 31 34 33 29 23 23 21 20 6 3 4 3 15 14 5 4 4 3 5 4 1 3 3 4 3 2 2 2 3 4 3 6 8 11 11 12 8 10 8 8 8 9 11 10 7 8 9 8
13 15 8 13 23 18 15 23 37 31 25 25 10 3 4 3 12 11 7 2 3 4 2 3 2 2 5 1 2 4 0 3 0 5 2 2 5 11 14 13 10 8 7 7 5 8 8 7 9 8 9 9 12 12
16 16 21 23 25 28 30 29 29 30 22 2 3 3 4 10 3 2 4 3 2 4 2 2 3 6 1 5 3 1 3 1 1 5 5 3 4 6 9 12 11 7 4 7 10 15 13 11 9 8 6 8 10 12
16 14 18 20 23 18 14 12 12 6 4 7 9 5 3 3 4 6 3 2 3 3 0 5 4 4 2 5 4 1 4 2 5 2 3 4 5 3 2 7 5 3 5 7 7 10 9 10 12 10 10 11 11 10
16 11 15 22 24 22 21 22 18 9 5 3 5 5 4 4 8 5 2 2 2 0 2 2 2 4 3 4 3 4 3 5 1 2 5 6 5 1 2 4 3 6 8 8 11 9 8 7 6 9 8 7 12 11
13 12 17 21 22 19 19 22 21 9 6 6 5 6 4 4 2 2 3 4 3 3 4 4 3 3 1 3 3 4 5 2 2 2 6 4 3 3 1 4 3 4 4 7 5 5 5 6 6 8 8 11 14 12
14 15 15 16 19 20 22 19 14 5 4 5 6 4 3 2 1 1 1 3 2 3 4 3 4 3 1 4 1 1 1 5 6 6 6 1 1 1 1 2 0 1 3 3 2 2 3 5 7 9 7 9 11 11
9 11 7 11 13 17 19 10 6 4 5 5 6 4 2 4 5 4 2 1 1 3 3 3 3 4 3 5 4 6 4 7 5 3 2 1 1 1 4 4 3 2 3 1 1 3 4 5 6 7 8 7 7 10
9 3 4 8 9 12 14 5 5 7 3 4 2 1 3 3 4 3 2 3 1 3 3 3 4 5 2 3 5 5 6 3 2 3 2 2 3 3 5 5 3 3 3 3 2 3 4 5 7 8 9 5 8 8
4 1 6 6 5 6 5 5 4 4 4 1 3 4 1 3 3 3 3 2 3 3 3 3 2 5 5 5 4 4 5 5 5 4 5 5 4 4 4 5 5 5 5 4 4 4 4 5 6 5 8 8 8 8
2 2 3 2 8 3 3 5 4 2 3 2 2 1 1 3 3 2 3 3 3 3 3 3 4 4 4 4 4 3 3 3 2 3 3 6 6 5 4 4 5 5 5 5 6 4 3 4 5 6 5 6 6 5
6 3 5 8 8 4 4 3 2 2 2 3 2 2 2 2 2 2 2 3 3 3 3 4 5 5 5 4 4 4 4 3 3 1 4 3 3 3 4 5 4 5 5 5 4 4 3 3 3 5 5 5 7 6
4 2 4 5 3 4 2 2 2 1 3 3 3 1 4 2 3 2 2 4 2 4 4 5 4 4 3 2 3 3 3 4 4 4 3 3 2 3 2 3 5 4 4 4 4 4 4 5 4 5 5 4 4 4
1 2 2 4 3 4 2 2 2 2 2 3 2 2 3 2 2 3 2 2 4 6 5 4 4 4 4 4 4 5 4 4 3 2 2 1 1 2 2 3 5 4 4 5 4 5 4 4 4 5 5 5 6 6
4 4 3 3 4 2 6 1 1 2 3 4 2 3 3 2 1 2 2 3 4 4 5 5 4 5 6 5 5 4 4 5 3 2 2 2 2 3 2 4 5 5 4 4 3 5 4 6 6 6 6 7 7 7
5 2 2 1 3 4 2 2 2 2 3 2 2 4 3 2 1 2 3 3 3 1 1 2 3 4 3 4 3 3 3 3 2 1 2 2 2 2 3 4 4 3 2 4 4 4 5 4 7 7 7 8 8 8
4 5 1 4 3 3 2 3 3 2 3 3 3 4 3 1 1 3 3 3 3 3 2 2 2 2 2 2 1 2 4 3 3 3 1 2 2 2 2 2 2 1 4 6 6 6 6 6 6 7 7 8 9 10
2 5 5 3 3 2 3 2 2 2 2 3 5 3 1 1 3 5 0 2 3 3 2 1 3 2 2 3 3 3 3 3 3 2 1 3 3 3 3 3 2 2 0 2 4 5 6 6 6 9 8 9 12 11
3 5 3 2 1 1 4 3 3 1 3 5 4 3 1 3 5 1 1 1 1 2 3 4 3 3 2 2 3 2 0 2 2 2 3 3 2 2 3 4 5 4 4 4 4 5 7 6 7 8 8 8 10 10
5 2 4 4 0 2 3 3 2 4 4 3 2 2 3 4 4 2 3 3 3 1 2 3 3 3 2 3 4 5 4 3 6 5 4 3 2 2 2 2 1 4 4 4 5 5 5 6 7 8 9 9 7 8
3 2 4 2 2 2 5 6 5 4 2 2 3 3 5 3 3 2 3 3 2 1 2 3 3 2 2 3 3 2 5 5 6 4 3 2 2 3 0 2 2 2 3 3 5 6 7 6 7 8 8 7 7 7
4 1 2 1 4 5 6 5 4 4 2 4 3 3 5 6 5 3 2 2 3 5 5 4 3 3 3 3 3 1 1 3 2 3 3 4 5 4 4 4 3 3 3 4 5 6 9 8 10 6 8 7 7 7
1 1 2 3 5 5 5 3 3 2 3 5 4 8 11 6 4 4 7 5 4 3 2 4 4 4 4 4 3 3 2 3 4 4 3 2 2 3 4 4 4 4 4 5 5 5 7 6 6 8 8 8 9 9
1 5 4 3 5 4 3 1 3 2 4 1 4 1 3 1 4 5 2 3 2 3 5 5 4 2 3 2 3 3 4 4 4 3 5 4 3 3 4 3 4 4 5 5 5 6 8 8 7 7 8 10 9 10
2 2 2 3 4 4 3 2 3 5 3 3 4 4 4 4 6 5 3 1 2 2 3 2 2 2 3 4 4 3 4 3 5 6 4 5 6 5 4 3 4 5 7 6 6 7 8 10 9 9 9 10 10 10
Wind_Direction
222 221 219 217 215 216 218 219 224 226 229 229 231 231 226 226 224 212 212 179 182 232 271 254 241 196 140 163 163 162 149 138 124 164 170 189 225 271 139 187 173 163 169 183 149 215 268 213 306 237 227 193 161 146
217 215 213 212 211 212 215 217 223 226 226 228 229 229 225 222 224 206 210 187 195 207 265 304 279 272 224 180 140 160 197 128 205 187 212 176 184 156 177 265 343 221 169 179 178 205 209 197 195 192 132 154 154 138
209 211 208 208 208 210 212 217 220 220 220 223 225 226 221 214 215 208 198 204 189 228 265 249 272 290 242 155 150 123 306 182 228 193 164 189 144 139 210 245 235 307 153 174 112 258 209 202 200 160 164 187 180 163
197 204 206 203 206 208 212 211 212 215 219 221 222 220 218 216 223 222 220 213 198 185 221 232 233 256 178 141 112 150 155 118 126 78 95 116 133 69 217 247 190 206 28 142 269 280 344 7 197 156 130 136 151 174
178 190 202 209 210 210 209 208 210 213 218 218 223 220 210 215 227 233 233 217 207 239 202 146 254 336 90 92 98 88 97 94 76 71 75 239 227 61 339 26 234 199 190 158 209 203 150 241 186 161 192 195 196 183
184 198 204 209 211 211 212 214 213 213 217 219 217 211 212 225 215 213 232 209 194 196 274 166 247 89 55 88 105 110 108 92 87 114 203 268 242 128 166 245 232 220 213 189 217 203 197 243 230 219 215 226 224 191
183 197 209 219 225 225 221 218 217 215 212 210 214 215 225 227 217 210 210 218 174 177 210 116 82 175 135 89 40 55 47 89 106 134 196 208 260 166 167 224 255 260 253 254 256 218 271 219 237 257 209 233 206 186
171 216 243 245 239 233 223 216 212 211 210 211 215 226 241 240 224 232 265 166 149 191 195 134 151 100 146 92 71 47 61 32 16 184 319 181 306 159 252 226 236 246 254 267 264 247 236 242 239 239 251 177 175 179
75 342 308 277 261 248 234 222 215 211 217 224 228 230 225 170 190 228 144 147 184 231 151 121 134 176 75 84 94 42 78 38 296 178 228 130 216 224 223 225 230 234 222 236 244 243 245 235 245 248 211 198 188 182
33 5 28 120 93 82 108 163 188 189 196 176 166 149 162 174 118 75 44 47 227 286 46 104 122 115 108 109 43 89 45 204 84 243 97 180 246 244 247 245 245 240 222 229 238 258 251 245 230 236 224 206 196 175
54 52 39 54 80 80 79 98 130 137 126 125 142 77 132 172 115 95 152 96 330 23 358 114 107 130 343 105 132 155 188 190 154 260 151 254 266 251 250 235 252 263 283 271 255 250 242 229 224 223 220 188 161 159
65 26 45 41 59 92 106 121 145 162 151 138 118 119 97 63 52 74 43 18 47 175 263 117 161 131 99 98 104 240 193 81 235 154 113 265 254 280 264 119 151 110 326 343 342 307 277 238 229 204 186 175 172 156
78 40 30 42 37 37 34 29 23 58 121 88 60 65 52 340 57 102 149 344 29 231 204 103 91 111 59 59 69 111 132 229 16 41 223 223 253 167 264 136 89 34 10 342 308 301 313 293 258 182 164 148 136 137
65 48 38 41 33 31 24 17 12 20 59 64 69 38 83 357 67 168 146 144 227 116 109 100 81 105 146 68 154 108 231 102 255 219 227 242 217 147 357 348 25 40 325 296 310 344 356 21 37 50 101 126 128 133
62 50 39 33 20 15 8 3 10 40 73 63 62 61 39 245 336 221 147 69 8 120 90 59 38 90 33 80 164 135 301 254 215 227 228 195 127 44 351 273 190 261 261 287 335 36 52 67 84 79 65 98 111 117
72 45 28 38 17 8 360 357 21 44 45 51 43 53 313 59 323 12 27 340 245 114 88 75 131 77 236 156 151 217 209 224 254 252 291 105 58 349 281 281 267 194 157 187 77 69 58 66 89 93 84 86 103 122
31 49 52 46 9 350 359 36 31 46 67 52 341 63 131 129 193 236 177 245 284 83 145 120 171 183 171 185 195 201 206 220 245 314 290 205 187 276 265 253 209 185 162 142 107 95 90 93 97 101 104 100 110 115
27 96 101 61 22 356 2 33 58 53 45 312 89 261 258 180 178 264 245 250 108 134 110 226 195 188 189 195 237 202 204 205 192 170 234 217 217 217 238 230 195 172 154 138 133 126 128 130 118 114 125 124 115 119
129 107 146 325 4 360 33 5 73 87 238 226 245 211 188 244 247 230 182 196 200 169 137 199 236 199 215 214 193 223 235 213 181 214 228 227 230 217 219 196 169 152 145 152 161 160 157 137 135 139 139 139 135 138
112 101 32 355 336 21 16 346 39 49 352 273 271 281 190 211 225 255 233 191 175 143 196 224 208 208 180 212 189 186 202 176 135 229 260 245 229 218 235 177 171 150 146 151 153 147 141 128 137 147 152 150 151 155
68 34 14 352 355 68 89 353 344 234 304 269 284 218 261 231 225 203 239 161 175 211 230 218 213 234 221 194 157 137 161 167 194 190 206 291 249 223 201 164 148 150 162 173 183 180 189 176 168 156 146 138 121 121
334 113 25 359 40 349 310 227 226 235 223 251 304 240 270 255 225 198 192 159 223 224 209 192 210 177 173 179 194 184 177 168 154 145 163 141 164 193 193 178 163 178 177 191 190 183 188 162 148 141 139 138 132 134
90 44 34 24 28 354 268 72 258 256 263 267 316 268 256 245 227 123 237 228 243 228 206 202 196 175 176 162 141 149 173 174 195 204 179 204 219 192 186 194 179 173 183 205 162 159 160 153 149 139 137 142 142 144
31 81 130 243 197 266 327 279 246 276 310 293 260 271 265 263 178 255 249 245 249 317 150 178 124 88 69 115 157 173 184 171 165 108 158 168 212 211 196 201 193 189 171 135 146 139 145 150 146 148 155 156 159 155
56 284 180 281 269 241 245 298 270 262 259 244 247 281 273 173 251 248 241 311 350 356 3 54 76 101 148 177 157 205 188 167 172 187 223 142 129 76 65 70 94 159 164 166 172 170 168 161 162 159 156 157 154 153
259 258 188 222 274 135 257 279 281 306 302 285 253 266 36 216 236 245 27 350 355 355 338 258 201 201 218 180 156 162 189 210 152 148 234 214 188 166 170 163 151 292 343 122 145 157 156 159 157 154 156 151 148 141
252 281 241 240 232 4 344 304 274 141 260 244 269 315 290 247 248 242 127 339 337 333 316 322 264 208 175 141 107 98 81 126 145 150 110 79 57 60 161 177 198 227 168 154 156 156 161 157 157 154 150 148 156 155
219 215 181 261 148 148 193 290 249 240 244 265 38 303 216 221 251 237 209 235 221 286 312 313 323 304 161 145 136 126 82 78 87 87 77 46 28 30 31 24 31 138 137 140 142 136 149 153 154 153 154 151 145 150
268 269 93 310 304 269 217 204 227 240 220 114 167 263 261 250 218 217 253 215 198 164 262 271 300 5 41 93 98 98 139 150 138 140 188 242 312 290 225 107 88 80 107 107 134 135 146 138 144 146 144 139 135 131
274 136 130 191 177 235 241 194 228 242 222 194 212 292 273 270 250 223 191 168 182 210 217 205 199 175 172 164 153 144 219 167 157 148 176 217 225 195 156 149 136 113 104 113 121 118 107 102 108 105 114 120 127 123
221 82 271 224 245 239 234 252 286 242 228 226 226 244 267 284 283 236 216 215 196 150 155 219 201 188 181 177 165 166 236 223 181 169 153 148 125 146 143 141 142 134 128 128 129 122 126 125 128 129 130 131 136 137
183 201 188 252 278 270 337 202 245 250 279 333 271 244 325 333 268 281 269 131 150 195 207 205 183 183 182 163 188 178 180 163 156 157 150 148 161 153 134 127 133 129 131 125 128 139 142 139 139 141 139 137 136 135
222 229 240 283 309 313 291 37 316 291 297 280 272 206 202 194 244 257 305 343 199 209 215 169 170 163 175 152 136 116 99 114 133 137 146 164 147 135 121 115 123 128 127 122 125 130 132 133 131 131 130 129 128 127